| time (UTC) | temp F | wind direction | speed MPH | gust MPH | rain 1hr in | rain 24hr in | rain mn in | humidity % | barometer mb |
| 20260902112012 | 70 | 302 | 4.0 | 6.0 | 0.00 | 0.00 | 0.00 | 55 | 1026.0 |
| 20260902111515 | 70 | 288 | 3.0 | 5.0 | 0.00 | 0.00 | 0.00 | 47 | 1026.1 |
| 20260902111010 | 70 | 290 | 2.0 | 7.0 | 0.00 | 0.00 | 0.00 | 54 | 1026.2 |
| 20260902110516 | 70 | 265 | 3.0 | 7.0 | 0.00 | 0.00 | 0.00 | 52 | 1026.2 |
| 20260902110022 | 70 | 294 | 2.0 | 5.0 | 0.00 | 0.00 | 0.00 | 51 | 1026.2 |
| 20260902105514 | 70 | 37 | 2.0 | 5.0 | 0.00 | 0.00 | 0.00 | 56 | 1026.2 |
| 20260902105016 | 69 | 297 | 0.0 | 4.0 | 0.00 | 0.00 | 0.00 | 53 | 1026.2 |
| 20260902104529 | 69 | 272 | 2.0 | 5.0 | 0.00 | 0.00 | 0.00 | 52 | 1026.3 |
| 20260902104002 | 69 | 276 | 1.0 | 5.0 | 0.00 | 0.00 | 0.00 | 47 | 1026.2 |
| 20260902103502 | 69 | 293 | 3.0 | 6.0 | 0.00 | 0.00 | 0.00 | 46 | 1026.3 |
| 20260902103005 | 70 | 285 | 3.0 | 6.0 | 0.00 | 0.00 | 0.00 | 50 | 1026.3 |
| 20260902102505 | 70 | 289 | 1.0 | 5.0 | 0.00 | 0.00 | 0.00 | 50 | 1026.2 |
| 20260902102006 | 70 | 270 | 1.0 | 5.0 | 0.00 | 0.00 | 0.00 | 50 | 1026.3 |
| 20260902101513 | 69 | 207 | 0.0 | 4.0 | 0.00 | 0.00 | 0.00 | 59 | 1026.2 |
| 20260902101010 | 68 | 226 | 2.0 | 5.0 | 0.00 | 0.00 | 0.00 | 56 | 1026.2 |
| 20260902100509 | 69 | 292 | 2.0 | 5.0 | 0.00 | 0.00 | 0.00 | 58 | 1026.2 |
| 20260902100018 | 68 | 277 | 0.0 | 4.0 | 0.00 | 0.00 | 0.00 | 61 | 1026.1 |
| 20260902095509 | 68 | 293 | 2.0 | 4.0 | 0.00 | 0.00 | 0.00 | 62 | 1026.0 |
| 20260902095014 | 67 | 311 | 1.0 | 4.0 | 0.00 | 0.00 | 0.00 | 66 | 1026.0 |
| 20260902094524 | 67 | 274 | 3.0 | 5.0 | 0.00 | 0.00 | 0.00 | 64 | 1026.0 |
| 20260902094014 | 67 | 236 | 2.0 | 5.0 | 0.00 | 0.00 | 0.00 | 65 | 1026.0 |
| 20260902093516 | 67 | 305 | 2.0 | 4.0 | 0.00 | 0.00 | 0.00 | 66 | 1026.0 |
| 20260902093029 | 67 | 292 | 2.0 | 6.0 | 0.00 | 0.00 | 0.00 | 68 | 1026.0 |
| 20260902092517 | 67 | 303 | 1.0 | 6.0 | 0.00 | 0.00 | 0.00 | 69 | 1025.9 |
| 20260902092007 | 67 | 283 | 2.0 | 5.0 | 0.00 | 0.00 | 0.00 | 67 | 1025.9 |
| 20260902091505 | 67 | 288 | 1.0 | 4.0 | 0.00 | 0.00 | 0.00 | 68 | 1025.9 |
| 20260902091006 | 67 | 309 | 2.0 | 3.0 | 0.00 | 0.00 | 0.00 | 68 | 1025.9 |
| 20260902090506 | 67 | 284 | 0.0 | 4.0 | 0.00 | 0.00 | 0.00 | 67 | 1025.8 |
| 20260902090015 | 67 | 249 | 2.0 | 4.0 | 0.00 | 0.00 | 0.00 | 68 | 1025.9 |
| 20260902085510 | 68 | 288 | 1.0 | 4.0 | 0.00 | 0.00 | 0.00 | 66 | 1025.8 |
| 20260902085011 | 67 | 286 | 2.0 | 4.0 | 0.00 | 0.00 | 0.00 | 66 | 1025.7 |
| 20260902084520 | 67 | 284 | 1.0 | 4.0 | 0.00 | 0.00 | 0.00 | 66 | 1025.7 |
| 20260902084012 | 68 | 304 | 1.0 | 4.0 | 0.00 | 0.00 | 0.00 | 65 | 1025.6 |
| 20260902083513 | 67 | 296 | 1.0 | 2.0 | 0.00 | 0.00 | 0.00 | 66 | 1025.6 |
| 20260902083024 | 67 | 250 | 0.0 | 3.0 | 0.00 | 0.00 | 0.00 | 66 | 1025.6 |
| 20260902082515 | 67 | 215 | 1.0 | 3.0 | 0.00 | 0.00 | 0.00 | 66 | 1025.5 |
| 20260902082015 | 67 | 273 | 1.0 | 2.0 | 0.00 | 0.00 | 0.00 | 65 | 1025.5 |
| 20260902081528 | 67 | 283 | 0.0 | 1.0 | 0.00 | 0.00 | 0.00 | 67 | 1025.3 |
| 20260902081017 | 67 | 278 | 0.0 | 2.0 | 0.00 | 0.00 | 0.00 | 66 | 1025.1 |
| 20260902080514 | 66 | 106 | 0.0 | 2.0 | 0.00 | 0.00 | 0.00 | 68 | 1025.0 |
| 20260902080007 | 66 | 153 | 0.0 | 1.0 | 0.00 | 0.00 | 0.00 | 71 | 1025.0 |
| 20260902075507 | 65 | 212 | 0.0 | 1.0 | 0.00 | 0.00 | 0.00 | 70 | 1025.1 |
| 20260902075009 | 65 | 213 | 0.0 | 1.0 | 0.00 | 0.00 | 0.00 | 70 | 1025.0 |
| 20260902074516 | 65 | 212 | 0.0 | 1.0 | 0.00 | 0.00 | 0.00 | 69 | 1025.0 |
| 20260902074012 | 65 | 276 | 0.0 | 1.0 | 0.00 | 0.00 | 0.00 | 68 | 1024.9 |
| 20260902073511 | 65 | 276 | 0.0 | 1.0 | 0.00 | 0.00 | 0.00 | 69 | 1024.8 |
| 20260902073020 | 65 | 275 | 0.0 | 1.0 | 0.00 | 0.00 | 0.00 | 70 | 1024.9 |
| 20260902072514 | 65 | 283 | 0.0 | 1.0 | 0.00 | 0.00 | 0.00 | 69 | 1024.9 |
| 20260902072014 | 65 | 278 | 0.0 | 1.0 | 0.00 | 0.00 | 0.00 | 70 | 1024.8 |
| 20260902071528 | 64 | 296 | 0.0 | 1.0 | 0.00 | 0.00 | 0.00 | 69 | 1024.8 |
| 20260902071017 | 64 | 296 | 0.0 | 0.0 | 0.00 | 0.00 | 0.00 | 69 | 1024.7 |
| 20260902070516 | 64 | 296 | 0.0 | 0.0 | 0.00 | 0.00 | 0.00 | 71 | 1024.6 |
| 20260902070041 | 63 | 296 | 0.0 | 0.0 | 0.00 | 0.00 | 0.00 | 72 | 1024.5 |
| 20260902065518 | 62 | 296 | 0.0 | 0.0 | 0.00 | 0.00 | 0.00 | 72 | 1024.6 |
| 20260902065020 | 62 | 296 | 0.0 | 0.0 | 0.00 | 0.00 | 0.00 | 72 | 1024.6 |
| 20260902064539 | 62 | 296 | 0.0 | 0.0 | 0.00 | 0.00 | 0.00 | 75 | 1024.5 |
| 20260902064009 | 61 | 296 | 0.0 | 0.0 | 0.00 | 0.00 | 0.00 | 71 | 1024.4 |
| 20260902063511 | 61 | 296 | 0.0 | 0.0 | 0.00 | 0.00 | 0.00 | 71 | 1024.4 |
| 20260902063016 | 62 | 296 | 0.0 | 0.0 | 0.00 | 0.00 | 0.00 | 70 | 1024.3 |
| 20260902062512 | 62 | 296 | 0.0 | 0.0 | 0.00 | 0.00 | 0.00 | 70 | 1024.2 |
| 20260902062012 | 62 | 296 | 0.0 | 0.0 | 0.00 | 0.00 | 0.00 | 69 | 1024.2 |
| 20260902061524 | 62 | 296 | 0.0 | 0.0 | 0.00 | 0.00 | 0.00 | 69 | 1024.2 |
| 20260902061015 | 62 | 296 | 0.0 | 1.0 | 0.00 | 0.00 | 0.00 | 69 | 1024.1 |
| 20260902060517 | 62 | 296 | 0.0 | 1.0 | 0.00 | 0.00 | 0.00 | 69 | 1024.1 |
| 20260902060028 | 62 | 296 | 0.0 | 1.0 | 0.00 | 0.00 | 0.00 | 68 | 1024.1 |
| 20260902055518 | 62 | 286 | 0.0 | 1.0 | 0.00 | 0.00 | 0.00 | 68 | 1024.1 |
| 20260902055018 | 63 | 283 | 0.0 | 1.0 | 0.00 | 0.00 | 0.00 | 68 | 1024.0 |
| 20260902054533 | 62 | 286 | 0.0 | 1.0 | 0.00 | 0.00 | 0.00 | 68 | 1023.9 |
| 20260902054015 | 62 | 281 | 0.0 | 1.0 | 0.00 | 0.00 | 0.00 | 69 | 1023.9 |
| 20260902053519 | 62 | 276 | 0.0 | 1.0 | 0.00 | 0.00 | 0.00 | 69 | 1023.7 |
| 20260902053035 | 62 | 274 | 0.0 | 1.0 | 0.00 | 0.00 | 0.00 | 69 | 1023.7 |
| 20260902052515 | 62 | 274 | 0.0 | 1.0 | 0.00 | 0.00 | 0.00 | 69 | 1023.6 |
| 20260902052014 | 63 | 281 | 0.0 | 1.0 | 0.00 | 0.00 | 0.00 | 68 | 1023.6 |
| 20260902051519 | 63 | 269 | 0.0 | 1.0 | 0.00 | 0.00 | 0.00 | 67 | 1023.5 |
| 20260902051011 | 63 | 273 | 0.0 | 1.0 | 0.00 | 0.00 | 0.00 | 67 | 1023.5 |
| 20260902050503 | 63 | 276 | 0.0 | 1.0 | 0.00 | 0.00 | 0.00 | 67 | 1023.5 |
| 20260902050007 | 63 | 276 | 0.0 | 1.0 | 0.00 | 0.00 | 0.00 | 67 | 1023.6 |
| 20260902045507 | 63 | 269 | 0.0 | 1.0 | 0.00 | 0.00 | 0.00 | 66 | 1023.5 |
| 20260902045004 | 63 | 279 | 0.0 | 2.0 | 0.00 | 0.00 | 0.00 | 66 | 1023.5 |
| 20260902044509 | 63 | 279 | 0.0 | 2.0 | 0.00 | 0.00 | 0.00 | 67 | 1023.5 |
| 20260902044006 | 63 | 183 | 0.0 | 1.0 | 0.00 | 0.00 | 0.00 | 67 | 1023.4 |
| 20260902043503 | 63 | 182 | 0.0 | 0.0 | 0.00 | 0.00 | 0.00 | 67 | 1023.4 |
| 20260902043009 | 63 | 182 | 0.0 | 1.0 | 0.00 | 0.00 | 0.00 | 67 | 1023.4 |
| 20260902042507 | 63 | 182 | 0.0 | 1.0 | 0.00 | 0.00 | 0.00 | 67 | 1023.4 |
| 20260902042010 | 63 | 120 | 0.0 | 1.0 | 0.00 | 0.00 | 0.00 | 67 | 1023.4 |
| 20260902041533 | 63 | 120 | 0.0 | 1.0 | 0.00 | 0.00 | 0.00 | 67 | 1023.5 |
| 20260902041010 | 63 | 120 | 0.0 | 1.0 | 0.00 | 0.00 | 0.00 | 66 | 1023.5 |
| 20260902040512 | 63 | 120 | 0.0 | 1.0 | 0.00 | 0.00 | 0.00 | 66 | 1023.5 |
| 20260902040026 | 63 | 120 | 0.0 | 1.0 | 0.00 | 0.00 | 0.00 | 66 | 1023.5 |
| 20260902035513 | 63 | 103 | 0.0 | 1.0 | 0.00 | 0.00 | 0.00 | 66 | 1023.6 |
| 20260902035015 | 63 | 128 | 0.0 | 1.0 | 0.00 | 0.00 | 0.00 | 65 | 1023.6 |
| 20260902034505 | 63 | 124 | 0.0 | 1.0 | 0.00 | 0.00 | 0.00 | 65 | 1023.6 |
| 20260902034003 | 62 | 256 | 0.0 | 1.0 | 0.00 | 0.00 | 0.00 | 66 | 1023.6 |
| 20260902033503 | 62 | 290 | 0.0 | 3.0 | 0.00 | 0.00 | 0.00 | 66 | 1023.6 |
| 20260902033006 | 62 | 145 | 0.0 | 3.0 | 0.00 | 0.00 | 0.00 | 66 | 1023.6 |
| 20260902032503 | 62 | 129 | 0.0 | 1.0 | 0.00 | 0.00 | 0.00 | 66 | 1023.6 |
| 20260902032007 | 62 | 127 | 0.0 | 1.0 | 0.00 | 0.00 | 0.00 | 66 | 1023.6 |
| 20260902031511 | 61 | 150 | 0.0 | 0.0 | 0.00 | 0.00 | 0.00 | 66 | 1023.6 |
| 20260902031007 | 61 | 150 | 0.0 | 0.0 | 0.00 | 0.00 | 0.00 | 67 | 1023.6 |
| 20260902030509 | 61 | 150 | 0.0 | 0.0 | 0.00 | 0.00 | 0.00 | 67 | 1023.6 |
| 20260902030016 | 61 | 148 | 0.0 | 0.0 | 0.00 | 0.00 | 0.00 | 67 | 1023.7 |
| 20260902025514 | 61 | 198 | 0.0 | 0.0 | 0.00 | 0.00 | 0.00 | 68 | 1023.7 |
| 20260902025014 | 61 | 198 | 0.0 | 0.0 | 0.00 | 0.00 | 0.00 | 68 | 1023.7 |
| 20260902024526 | 61 | 199 | 0.0 | 0.0 | 0.00 | 0.00 | 0.00 | 69 | 1023.7 |
| 20260902024015 | 61 | 189 | 0.0 | 1.0 | 0.00 | 0.00 | 0.00 | 69 | 1023.7 |
| 20260902023513 | 61 | 187 | 0.0 | 1.0 | 0.00 | 0.00 | 0.00 | 69 | 1023.7 |
| 20260902023026 | 61 | 146 | 0.0 | 1.0 | 0.00 | 0.00 | 0.00 | 70 | 1023.7 |
| 20260902022505 | 61 | 144 | 0.0 | 1.0 | 0.00 | 0.00 | 0.00 | 70 | 1023.7 |
| 20260902022005 | 60 | 336 | 0.0 | 1.0 | 0.00 | 0.00 | 0.00 | 70 | 1023.7 |
| 20260902021513 | 60 | 108 | 0.0 | 1.0 | 0.00 | 0.00 | 0.00 | 71 | 1023.7 |
| 20260902021006 | 60 | 93 | 0.0 | 1.0 | 0.00 | 0.00 | 0.00 | 71 | 1023.8 |
| 20260902020508 | 60 | 140 | 0.0 | 1.0 | 0.00 | 0.00 | 0.00 | 72 | 1023.8 |
| 20260902020019 | 60 | 2 | 0.0 | 1.0 | 0.00 | 0.00 | 0.00 | 73 | 1023.8 |
| 20260902015509 | 59 | 120 | 0.0 | 1.0 | 0.00 | 0.00 | 0.00 | 73 | 1023.7 |
| 20260902015010 | 59 | 162 | 0.0 | 1.0 | 0.00 | 0.00 | 0.00 | 73 | 1023.7 |
| 20260902014519 | 59 | 149 | 0.0 | 1.0 | 0.00 | 0.00 | 0.00 | 73 | 1023.7 |
| 20260902014017 | 59 | 129 | 0.0 | 1.0 | 0.00 | 0.00 | 0.00 | 73 | 1023.7 |
| 20260902013513 | 59 | 345 | 0.0 | 2.0 | 0.00 | 0.00 | 0.00 | 74 | 1023.7 |
| 20260902013032 | 59 | 238 | 0.0 | 2.0 | 0.00 | 0.00 | 0.00 | 74 | 1023.6 |
| 20260902012515 | 58 | 186 | 0.0 | 1.0 | 0.00 | 0.00 | 0.00 | 74 | 1023.7 |
| 20260902012014 | 58 | 203 | 0.0 | 1.0 | 0.00 | 0.00 | 0.00 | 75 | 1023.8 |
| 20260902011528 | 58 | 220 | 0.0 | 1.0 | 0.00 | 0.00 | 0.00 | 75 | 1023.8 |
| 20260902011014 | 58 | 252 | 0.0 | 1.0 | 0.00 | 0.00 | 0.00 | 75 | 1023.8 |
| 20260902010502 | 58 | 277 | 0.0 | 1.0 | 0.00 | 0.00 | 0.00 | 74 | 1023.9 |
| 20260902010016 | 59 | 279 | 0.0 | 1.0 | 0.00 | 0.00 | 0.00 | 74 | 1023.9 |
| 20260902005510 | 59 | 250 | 0.0 | 1.0 | 0.00 | 0.00 | 0.00 | 74 | 1023.9 |
| 20260902005010 | 59 | 249 | 0.0 | 1.0 | 0.00 | 0.00 | 0.00 | 74 | 1023.9 |
| 20260902004515 | 59 | 255 | 0.0 | 1.0 | 0.00 | 0.00 | 0.00 | 74 | 1023.9 |
| 20260902004009 | 59 | 249 | 0.0 | 1.0 | 0.00 | 0.00 | 0.00 | 73 | 1023.8 |
| 20260902003511 | 59 | 249 | 0.0 | 1.0 | 0.00 | 0.00 | 0.00 | 74 | 1023.8 |
| 20260902003024 | 59 | 250 | 0.0 | 1.0 | 0.00 | 0.00 | 0.00 | 74 | 1023.7 |
| 20260902002510 | 59 | 252 | 0.0 | 1.0 | 0.00 | 0.00 | 0.00 | 73 | 1023.7 |
| 20260902002012 | 59 | 252 | 0.0 | 1.0 | 0.00 | 0.00 | 0.00 | 73 | 1023.7 |
| 20260902001529 | 59 | 259 | 0.0 | 1.0 | 0.00 | 0.00 | 0.00 | 73 | 1023.7 |
| 20260902001015 | 60 | 275 | 0.0 | 1.0 | 0.00 | 0.00 | 0.00 | 72 | 1023.7 |
| 20260902000512 | 60 | 240 | 0.0 | 1.0 | 0.00 | 0.00 | 0.00 | 72 | 1023.7 |
| 20260902000032 | 60 | 255 | 0.0 | 1.0 | 0.00 | 0.00 | 0.00 | 72 | 1023.6 |
| 20260901235516 | 60 | 264 | 0.0 | 1.0 | 0.00 | 0.00 | 0.00 | 72 | 1023.7 |
| 20260901235017 | 60 | 285 | 0.0 | 1.0 | 0.00 | 0.00 | 0.00 | 72 | 1023.7 |
| 20260901234511 | 60 | 280 | 0.0 | 1.0 | 0.00 | 0.00 | 0.00 | 71 | 1023.6 |
| 20260901234007 | 60 | 278 | 0.0 | 1.0 | 0.00 | 0.00 | 0.00 | 71 | 1023.6 |
| 20260901233511 | 60 | 290 | 0.0 | 1.0 | 0.00 | 0.00 | 0.00 | 71 | 1023.6 |
| 20260901233016 | 61 | 270 | 0.0 | 2.0 | 0.00 | 0.00 | 0.00 | 70 | 1023.7 |
| 20260901232511 | 61 | 277 | 0.0 | 2.0 | 0.00 | 0.00 | 0.00 | 70 | 1023.6 |
| 20260901232011 | 61 | 290 | 0.0 | 1.0 | 0.00 | 0.00 | 0.00 | 70 | 1023.7 |
| 20260901231523 | 61 | 283 | 0.0 | 2.0 | 0.00 | 0.00 | 0.00 | 69 | 1023.6 |
| 20260901231017 | 62 | 281 | 0.0 | 2.0 | 0.00 | 0.00 | 0.00 | 69 | 1023.5 |
| 20260901230517 | 61 | 288 | 1.0 | 2.0 | 0.00 | 0.00 | 0.00 | 69 | 1023.5 |
| 20260901230043 | 60 | 281 | 1.0 | 1.0 | 0.00 | 0.00 | 0.00 | 71 | 1023.5 |
| 20260901225513 | 60 | 298 | 0.0 | 1.0 | 0.00 | 0.00 | 0.00 | 70 | 1023.5 |
| 20260901225015 | 61 | 280 | 0.0 | 1.0 | 0.00 | 0.00 | 0.00 | 70 | 1023.5 |
| 20260901224530 | 61 | 261 | 0.0 | 1.0 | 0.00 | 0.00 | 0.00 | 69 | 1023.4 |
| 20260901224015 | 61 | 130 | 0.0 | 1.0 | 0.00 | 0.00 | 0.00 | 69 | 1023.4 |
| 20260901223516 | 61 | 127 | 0.0 | 1.0 | 0.00 | 0.00 | 0.00 | 69 | 1023.4 |
| 20260901223033 | 61 | 147 | 0.0 | 1.0 | 0.00 | 0.00 | 0.00 | 69 | 1023.4 |
| 20260901222511 | 62 | 141 | 0.0 | 1.0 | 0.00 | 0.00 | 0.00 | 69 | 1023.4 |
| 20260901222008 | 61 | 213 | 0.0 | 1.0 | 0.00 | 0.00 | 0.00 | 69 | 1023.4 |
| 20260901221524 | 62 | 146 | 0.0 | 0.0 | 0.00 | 0.00 | 0.00 | 68 | 1023.4 |
| 20260901221010 | 62 | 146 | 0.0 | 1.0 | 0.00 | 0.00 | 0.00 | 68 | 1023.5 |
| 20260901220514 | 62 | 146 | 0.0 | 1.0 | 0.00 | 0.00 | 0.00 | 68 | 1023.5 |
| 20260901220041 | 62 | 145 | 0.0 | 1.0 | 0.00 | 0.00 | 0.00 | 68 | 1023.5 |
| 20260901215514 | 62 | 140 | 0.0 | 1.0 | 0.00 | 0.00 | 0.00 | 68 | 1023.5 |
| 20260901215014 | 62 | 278 | 0.0 | 1.0 | 0.00 | 0.00 | 0.00 | 68 | 1023.5 |
| 20260901214532 | 62 | 279 | 0.0 | 1.0 | 0.00 | 0.00 | 0.00 | 68 | 1023.5 |
| 20260901214021 | 62 | 143 | 0.0 | 1.0 | 0.00 | 0.00 | 0.00 | 68 | 1023.5 |
| 20260901213517 | 62 | 141 | 0.0 | 1.0 | 0.00 | 0.00 | 0.00 | 68 | 1023.5 |
| 20260901213034 | 62 | 157 | 0.0 | 1.0 | 0.00 | 0.00 | 0.00 | 67 | 1023.5 |
| 20260901212516 | 62 | 152 | 0.0 | 1.0 | 0.00 | 0.00 | 0.00 | 67 | 1023.6 |
| 20260901212025 | 62 | 148 | 0.0 | 1.0 | 0.00 | 0.00 | 0.00 | 68 | 1023.6 |
| 20260901211532 | 62 | 137 | 0.0 | 1.0 | 0.00 | 0.00 | 0.00 | 68 | 1023.6 |
| 20260901211009 | 62 | 118 | 0.0 | 1.0 | 0.00 | 0.00 | 0.00 | 67 | 1023.6 |
| 20260901210510 | 62 | 175 | 0.0 | 1.0 | 0.00 | 0.00 | 0.00 | 68 | 1023.7 |
| 20260901210028 | 62 | 205 | 0.0 | 1.0 | 0.00 | 0.00 | 0.00 | 67 | 1023.7 |
| 20260901205512 | 62 | 285 | 0.0 | 1.0 | 0.00 | 0.00 | 0.00 | 67 | 1023.7 |
| 20260901205014 | 62 | 287 | 0.0 | 0.0 | 0.00 | 0.00 | 0.00 | 67 | 1023.7 |
| 20260901204525 | 62 | 287 | 0.0 | 0.0 | 0.00 | 0.00 | 0.00 | 67 | 1023.8 |
| 20260901204014 | 62 | 287 | 0.0 | 0.0 | 0.00 | 0.00 | 0.00 | 67 | 1023.8 |
| 20260901203515 | 62 | 287 | 0.0 | 1.0 | 0.00 | 0.00 | 0.00 | 67 | 1023.8 |
| 20260901203043 | 63 | 287 | 0.0 | 1.0 | 0.00 | 0.00 | 0.00 | 67 | 1023.7 |
| 20260901202516 | 63 | 287 | 0.0 | 0.0 | 0.00 | 0.00 | 0.00 | 67 | 1023.7 |
| 20260901202016 | 63 | 287 | 0.0 | 1.0 | 0.00 | 0.00 | 0.00 | 66 | 1023.8 |
| 20260901201530 | 63 | 287 | 0.0 | 1.0 | 0.00 | 0.00 | 0.00 | 66 | 1023.7 |
| 20260901201019 | 64 | 292 | 0.0 | 1.0 | 0.00 | 0.00 | 0.00 | 65 | 1023.7 |
| 20260901200518 | 64 | 293 | 0.0 | 2.0 | 0.00 | 0.00 | 0.00 | 65 | 1023.7 |
| 20260901200045 | 64 | 292 | 0.0 | 2.0 | 0.00 | 0.00 | 0.00 | 65 | 1023.7 |
| 20260901195516 | 65 | 288 | 1.0 | 3.0 | 0.00 | 0.00 | 0.00 | 64 | 1023.7 |
| 20260901195016 | 65 | 271 | 1.0 | 3.0 | 0.00 | 0.00 | 0.00 | 62 | 1023.6 |
| 20260901194524 | 65 | 283 | 1.0 | 3.0 | 0.00 | 0.00 | 0.00 | 61 | 1023.5 |
| 20260901194014 | 65 | 273 | 0.0 | 3.0 | 0.00 | 0.00 | 0.00 | 59 | 1023.5 |
| 20260901193514 | 66 | 288 | 0.0 | 3.0 | 0.00 | 0.00 | 0.00 | 56 | 1023.5 |
| 20260901193029 | 66 | 275 | 0.0 | 1.0 | 0.00 | 0.00 | 0.00 | 55 | 1023.4 |
| 20260901192516 | 66 | 275 | 0.0 | 1.0 | 0.00 | 0.00 | 0.00 | 56 | 1023.3 |
| 20260901192016 | 67 | 283 | 0.0 | 1.0 | 0.00 | 0.00 | 0.00 | 56 | 1023.2 |
| 20260901191532 | 67 | 323 | 0.0 | 0.0 | 0.00 | 0.00 | 0.00 | 56 | 1023.1 |
| 20260901191004 | 67 | 323 | 0.0 | 0.0 | 0.00 | 0.00 | 0.00 | 55 | 1023.0 |
| 20260901190503 | 67 | 323 | 0.0 | 0.0 | 0.00 | 0.00 | 0.00 | 56 | 1023.0 |
| 20260901190009 | 67 | 323 | 0.0 | 0.0 | 0.00 | 0.00 | 0.00 | 56 | 1023.0 |
| 20260901185503 | 67 | 323 | 0.0 | 0.0 | 0.00 | 0.00 | 0.00 | 55 | 1022.9 |
| 20260901185003 | 67 | 323 | 0.0 | 0.0 | 0.00 | 0.00 | 0.00 | 54 | 1022.7 |
| 20260901184507 | 68 | 323 | 0.0 | 0.0 | 0.00 | 0.00 | 0.00 | 53 | 1022.6 |
| 20260901184005 | 68 | 323 | 0.0 | 0.0 | 0.00 | 0.00 | 0.00 | 53 | 1022.6 |
| 20260901183504 | 68 | 323 | 0.0 | 0.0 | 0.00 | 0.00 | 0.00 | 52 | 1022.5 |
| 20260901183011 | 69 | 323 | 0.0 | 0.0 | 0.00 | 0.00 | 0.00 | 51 | 1022.6 |
| 20260901182503 | 69 | 323 | 0.0 | 1.0 | 0.00 | 0.00 | 0.00 | 51 | 1022.6 |
| 20260901182003 | 69 | 323 | 0.0 | 1.0 | 0.00 | 0.00 | 0.00 | 51 | 1022.6 |
| 20260901181507 | 69 | 342 | 0.0 | 1.0 | 0.00 | 0.00 | 0.00 | 51 | 1022.5 |
| 20260901181002 | 69 | 303 | 0.0 | 2.0 | 0.00 | 0.00 | 0.00 | 54 | 1022.7 |
| 20260901180506 | 70 | 303 | 1.0 | 2.0 | 0.00 | 0.00 | 0.00 | 53 | 1022.7 |
| 20260901180008 | 70 | 307 | 0.0 | 1.0 | 0.00 | 0.00 | 0.00 | 52 | 1022.7 |
| 20260901175503 | 70 | 307 | 0.0 | 1.0 | 0.00 | 0.00 | 0.00 | 52 | 1022.7 |
| 20260901175003 | 70 | 314 | 0.0 | 1.0 | 0.00 | 0.00 | 0.00 | 51 | 1022.7 |
| 20260901174508 | 70 | 336 | 0.0 | 1.0 | 0.00 | 0.00 | 0.00 | 52 | 1022.6 |
| 20260901174003 | 71 | 1 | 0.0 | 2.0 | 0.00 | 0.00 | 0.00 | 52 | 1022.6 |
| 20260901173507 | 71 | 360 | 0.0 | 2.0 | 0.00 | 0.00 | 0.00 | 52 | 1022.6 |
| 20260901173010 | 72 | 295 | 0.0 | 1.0 | 0.00 | 0.00 | 0.00 | 51 | 1022.6 |
| 20260901172504 | 73 | 295 | 0.0 | 1.0 | 0.00 | 0.00 | 0.00 | 51 | 1022.6 |
| 20260901172004 | 74 | 294 | 0.0 | 1.0 | 0.00 | 0.00 | 0.00 | 50 | 1022.5 |
| 20260901171511 | 74 | 264 | 0.0 | 1.0 | 0.00 | 0.00 | 0.00 | 50 | 1022.5 |
| 20260901171006 | 73 | 270 | 0.0 | 2.0 | 0.00 | 0.00 | 0.00 | 52 | 1022.5 |
| 20260901170507 | 72 | 305 | 0.0 | 2.0 | 0.00 | 0.00 | 0.00 | 51 | 1022.5 |
| 20260901170011 | 73 | 302 | 0.0 | 2.0 | 0.00 | 0.00 | 0.00 | 51 | 1022.5 |
| 20260901165503 | 73 | 349 | 0.0 | 2.0 | 0.00 | 0.00 | 0.00 | 50 | 1022.5 |
| 20260901165008 | 74 | 354 | 0.0 | 2.0 | 0.00 | 0.00 | 0.00 | 49 | 1022.5 |
| 20260901164510 | 74 | 35 | 0.0 | 1.0 | 0.00 | 0.00 | 0.00 | 49 | 1022.4 |
| 20260901164008 | 74 | 35 | 0.0 | 1.0 | 0.00 | 0.00 | 0.00 | 50 | 1022.4 |
| 20260901163505 | 74 | 35 | 0.0 | 1.0 | 0.00 | 0.00 | 0.00 | 50 | 1022.4 |
| 20260901163017 | 73 | 36 | 0.0 | 1.0 | 0.00 | 0.00 | 0.00 | 51 | 1022.4 |
| 20260901162508 | 73 | 8 | 0.0 | 2.0 | 0.00 | 0.00 | 0.00 | 50 | 1022.5 |
| 20260901162008 | 73 | 32 | 0.0 | 2.0 | 0.00 | 0.00 | 0.00 | 51 | 1022.6 |
| 20260901161512 | 73 | 57 | 0.0 | 2.0 | 0.00 | 0.00 | 0.00 | 50 | 1022.6 |
| 20260901161009 | 73 | 63 | 0.0 | 2.0 | 0.00 | 0.00 | 0.00 | 50 | 1022.6 |
| 20260901160506 | 73 | 65 | 0.0 | 2.0 | 0.00 | 0.00 | 0.00 | 50 | 1022.5 |
| 20260901160011 | 72 | 20 | 0.0 | 2.0 | 0.00 | 0.00 | 0.00 | 49 | 1022.5 |
| 20260901155507 | 72 | 309 | 0.0 | 3.0 | 0.00 | 0.00 | 0.00 | 50 | 1022.5 |
| 20260901155007 | 73 | 321 | 0.0 | 3.0 | 0.00 | 0.00 | 0.00 | 49 | 1022.5 |
| 20260901154522 | 73 | 299 | 2.0 | 6.0 | 0.00 | 0.00 | 0.00 | 48 | 1022.6 |
| 20260901154006 | 73 | 278 | 1.0 | 6.0 | 0.00 | 0.00 | 0.00 | 49 | 1022.6 |
| 20260901153506 | 74 | 299 | 1.0 | 3.0 | 0.00 | 0.00 | 0.00 | 48 | 1022.6 |
| 20260901153027 | 74 | 328 | 0.0 | 3.0 | 0.00 | 0.00 | 0.00 | 49 | 1022.5 |
| 20260901152507 | 75 | 305 | 1.0 | 3.0 | 0.00 | 0.00 | 0.00 | 46 | 1022.5 |
| 20260901152007 | 75 | 65 | 0.0 | 3.0 | 0.00 | 0.00 | 0.00 | 49 | 1022.5 |
| 20260901151516 | 75 | 356 | 1.0 | 3.0 | 0.00 | 0.00 | 0.00 | 46 | 1022.5 |
| 20260901151008 | 75 | 299 | 0.0 | 2.0 | 0.00 | 0.00 | 0.00 | 47 | 1022.6 |
| 20260901150509 | 74 | 343 | 0.0 | 2.0 | 0.00 | 0.00 | 0.00 | 47 | 1022.7 |
| 20260901150026 | 74 | 279 | 0.0 | 3.0 | 0.00 | 0.00 | 0.00 | 49 | 1022.6 |
| 20260901145514 | 74 | 318 | 0.0 | 3.0 | 0.00 | 0.00 | 0.00 | 49 | 1022.7 |
| 20260901145010 | 74 | 41 | 1.0 | 3.0 | 0.00 | 0.00 | 0.00 | 48 | 1022.7 |
| 20260901144515 | 73 | 336 | 1.0 | 3.0 | 0.00 | 0.00 | 0.00 | 50 | 1022.8 |
| 20260901144008 | 73 | 311 | 1.0 | 3.0 | 0.00 | 0.00 | 0.00 | 49 | 1022.8 |
| 20260901143509 | 73 | 2 | 1.0 | 2.0 | 0.00 | 0.00 | 0.00 | 49 | 1022.9 |
| 20260901143015 | 73 | 340 | 0.0 | 2.0 | 0.00 | 0.00 | 0.00 | 50 | 1022.8 |
| 20260901142510 | 74 | 79 | 0.0 | 2.0 | 0.00 | 0.00 | 0.00 | 49 | 1022.9 |
| 20260901142011 | 74 | 61 | 0.0 | 2.0 | 0.00 | 0.00 | 0.00 | 49 | 1023.0 |
| 20260901141512 | 74 | 330 | 0.0 | 2.0 | 0.00 | 0.00 | 0.00 | 50 | 1023.0 |
| 20260901141011 | 73 | 6 | 0.0 | 3.0 | 0.00 | 0.00 | 0.00 | 49 | 1023.0 |
| 20260901140508 | 73 | 32 | 1.0 | 3.0 | 0.00 | 0.00 | 0.00 | 49 | 1023.0 |
| 20260901140020 | 74 | 68 | 1.0 | 4.0 | 0.00 | 0.00 | 0.00 | 51 | 1023.0 |
| 20260901135510 | 73 | 20 | 0.0 | 4.0 | 0.00 | 0.00 | 0.00 | 50 | 1023.1 |
| 20260901135014 | 73 | 290 | 1.0 | 4.0 | 0.00 | 0.00 | 0.00 | 49 | 1023.2 |
| 20260901134518 | 72 | 19 | 0.0 | 3.0 | 0.00 | 0.00 | 0.00 | 49 | 1023.2 |
| 20260901134011 | 72 | 200 | 0.0 | 3.0 | 0.00 | 0.00 | 0.00 | 49 | 1023.4 |
| 20260901133511 | 72 | 290 | 2.0 | 3.0 | 0.00 | 0.00 | 0.00 | 49 | 1023.4 |
| 20260901133028 | 72 | 307 | 1.0 | 3.0 | 0.00 | 0.00 | 0.00 | 52 | 1023.5 |
| 20260901132511 | 72 | 24 | 1.0 | 3.0 | 0.00 | 0.00 | 0.00 | 51 | 1023.5 |
| 20260901132011 | 71 | 127 | 1.0 | 3.0 | 0.00 | 0.00 | 0.00 | 50 | 1023.5 |
| 20260901131521 | 71 | 302 | 1.0 | 6.0 | 0.00 | 0.00 | 0.00 | 50 | 1023.5 |
| 20260901131003 | 72 | 323 | 1.0 | 6.0 | 0.00 | 0.00 | 0.00 | 50 | 1023.5 |
| 20260901130503 | 72 | 22 | 1.0 | 3.0 | 0.00 | 0.00 | 0.00 | 52 | 1023.5 |
| 20260901130009 | 72 | 315 | 1.0 | 3.0 | 0.00 | 0.00 | 0.00 | 52 | 1023.6 |
| 20260901125507 | 72 | 68 | 0.0 | 4.0 | 0.00 | 0.00 | 0.00 | 50 | 1023.6 |
| 20260901125007 | 72 | 330 | 0.0 | 4.0 | 0.00 | 0.00 | 0.00 | 53 | 1023.6 |
| 20260901124510 | 71 | 290 | 2.0 | 4.0 | 0.00 | 0.00 | 0.00 | 55 | 1023.6 |
| 20260901124003 | 70 | 279 | 1.0 | 5.0 | 0.00 | 0.00 | 0.00 | 54 | 1023.7 |
| 20260901123503 | 71 | 313 | 2.0 | 5.0 | 0.00 | 0.00 | 0.00 | 55 | 1023.7 |
| 20260901123007 | 71 | 86 | 1.0 | 3.0 | 0.00 | 0.00 | 0.00 | 55 | 1023.8 |
| 20260901122503 | 70 | 297 | 1.0 | 4.0 | 0.00 | 0.00 | 0.00 | 54 | 1023.9 |
| 20260901122003 | 71 | 335 | 1.0 | 5.0 | 0.00 | 0.00 | 0.00 | 55 | 1023.9 |
| 20260901121507 | 71 | 32 | 2.0 | 5.0 | 0.00 | 0.00 | 0.00 | 57 | 1023.9 |
| 20260901121006 | 71 | 307 | 0.0 | 4.0 | 0.00 | 0.00 | 0.00 | 54 | 1023.9 |
| 20260901120507 | 71 | 272 | 0.0 | 4.0 | 0.00 | 0.00 | 0.00 | 55 | 1023.9 |
| 20260901120014 | 71 | 333 | 1.0 | 4.0 | 0.00 | 0.00 | 0.00 | 57 | 1023.9 |
| 20260901115512 | 70 | 348 | 1.0 | 4.0 | 0.00 | 0.00 | 0.00 | 57 | 1024.0 |
| 20260901115007 | 70 | 338 | 1.0 | 4.0 | 0.00 | 0.00 | 0.00 | 55 | 1024.0 |
| 20260901114513 | 71 | 41 | 1.0 | 5.0 | 0.00 | 0.00 | 0.00 | 57 | 1024.0 |
| 20260901114012 | 70 | 91 | 1.0 | 5.0 | 0.00 | 0.00 | 0.00 | 56 | 1024.0 |
| 20260901113509 | 70 | 324 | 2.0 | 4.0 | 0.00 | 0.00 | 0.00 | 56 | 1024.0 |
| 20260901113012 | 70 | 347 | 1.0 | 3.0 | 0.00 | 0.00 | 0.00 | 55 | 1024.1 |
| 20260901112506 | 70 | 58 | 0.0 | 3.0 | 0.00 | 0.00 | 0.00 | 55 | 1024.0 |